Hourly Data Report for December 18, 2003

TORONTO CITY
ONTARIO

43°40'00.000" N
79°24'00.000" W
112.50 m
6158355
71508
XTO

Download Data

Hourly Data (December 2003)
Hourly Data Report for December 18, 2003
TIME
LST
Temp Definition
°C
Dew Point Definition
°C
Rel Hum Definition
%
Precip. Amount Definition
mm

Wind Dir Definition
10's deg

Wind Spd Definition
km/h
Visibility Definition
km
Stn Press Definition
kPa
Hmdx Definition


Wind Chill Definition


Weather Definition


00:00 0.6 -3.0 77   LegendMM LegendMM LegendMM 98.59     LegendNANA
01:00 -0.3 -4.7 72   LegendMM LegendMM LegendMM 98.58     LegendNANA
02:00 -0.5 -4.6 74   LegendMM LegendMM LegendMM 98.62     LegendNANA
03:00 -1.2 -5.1 75   LegendMM LegendMM LegendMM 98.66     LegendNANA
04:00 -1.1 -4.8 76   LegendMM LegendMM LegendMM 98.69     LegendNANA
05:00 -1.3 -5.2 75   LegendMM LegendMM LegendMM 98.74     LegendNANA
06:00 -1.7 -6.0 72   LegendMM LegendMM LegendMM 98.78     LegendNANA
07:00 -2.4 -7.3 69   LegendMM LegendMM LegendMM 98.81     LegendNANA
08:00 -2.8 -8.0 67   LegendMM LegendMM LegendMM 98.85     LegendNANA
09:00 -3.1 -8.3 67   LegendMM LegendMM LegendMM 98.91     LegendNANA
10:00 -2.0 -7.9 64   LegendMM LegendMM LegendMM 98.94     LegendNANA
11:00 -0.5 -7.3 60   LegendMM LegendMM LegendMM 98.93     LegendNANA
12:00 -0.3 -6.4 63   LegendMM LegendMM LegendMM 98.90     LegendNANA
13:00 -0.3 -6.2 64   LegendMM LegendMM LegendMM 98.88     LegendNANA
14:00 -0.2 -6.7 62   LegendMM LegendMM LegendMM 98.91     LegendNANA
15:00 -0.2 -6.6 62   LegendMM LegendMM LegendMM 98.97     LegendNANA
16:00 -0.4 -6.9 61   LegendMM LegendMM LegendMM 99.01     LegendNANA
17:00 -0.9 -7.1 63   LegendMM LegendMM LegendMM 99.10     LegendNANA
18:00 -1.5 -6.7 68   LegendMM LegendMM LegendMM 99.19     LegendNANA
19:00 -1.2 -6.6 67   LegendMM LegendMM LegendMM 99.23     LegendNANA
20:00
21:00 -1.6 -6.3 70   LegendMM LegendMM LegendMM 99.29     LegendNANA
22:00 -2.3 -6.4 73   LegendMM LegendMM LegendMM 99.31     LegendNANA
23:00 -1.6 -5.9 72   LegendMM LegendMM LegendMM 99.33     LegendNANA

Notes on Data Quality.

Legend

  • E = Estimated
  • M = Missing
  • NA = Not Available*
  • [empty] = Indicates an unobserved value
Date modified: